Starlink 11477

operational
NORAD ID: 62471 Int'l Des: 2024-254 Owner: SPXS Country: US Constellation: starlink
LEOCIRCULAR

关于 Starlink 11477

正在加载描述...

实时位置

正在加载3D地球...

即将过境

高度历史

Altitude vs Time

uPlot chart will show altitude changes over time

两行轨道根数

1 62471U 24254K 25301.00907908 .00261513 00000-0 19641-2 0 9992
2 62471 42.9996 302.7697 0003978 289.5955 70.4483 15.71004198 48526
Epoch: Oct 28, 2025 • Age: 21 hours

当前状态

高度 355.4 km
速度 7.70 km/s
星下点 5.16°N, 122.91°E
发射日期 Dec 31, 2024
运行时间 0.8 years
类型 internet

技术详情

分类 Payload
质量 960.00 kg
干质量 910.00 kg
总质量 960.00 kg
长度 0.30 m
直径 4.10 m
跨度 29.00 m
形状 Box + pan
制造商 SPXS
平台类型 Starlink V2MD
阶段状态 In Orbit
所有者/国家 SPXS/US

大型星座

Loading constellations...